Weather Roundup
Issued by NWS Chicago, IL

Home | Current Version | Previous Version | Graphics & Text | Print | Product List | Glossary On
Versions: 1 2 3 4 5 6 7 8 9 10 11 12 13 14 15 16 17 18 19 20 21 22 23 24 25 26 27 28 29 30 31 32 33 34 35 36 37 38 39 40 41 42 43 44 45 46 47 48 49 50
000
NZUS59 KLOT 290400
HRRLOT

CHICAGO AREA WEATHER ROUNDUP
NATIONAL WEATHER SERVICE CHICAGO/ROMEOVILLE IL
1100 PM CDT MON JUL 28 2014

NOTE: "FAIR" INDICATES FEW OR NO CLOUDS BELOW 12,000 FEET WITH NO
SIGNIFICANT WEATHER AND/OR OBSTRUCTIONS TO VISIBILITY.

* THESE STATIONS ARE NOT UNDER NWS QUALITY CONTROL. THEY ALSO MAY NOT
  REPORT WEATHER SUCH AS PRECIPITATION OR FOG.

ILZ005-006-012>014-019>023-290500-
NORTHEAST ILLINOIS

CITY           SKY/WX    TMP DP  RH WIND       PRES   REMARKS
OHARE          CLOUDY    62  49  62 CALM      30.05F
MIDWAY         CLOUDY    65  50  58 S6        30.06F
AURORA         CLEAR     56  52  86 W3        30.08F
LANSING*       CLOUDY    60  53  79 SW3       30.07F
WAUKEGAN       CLOUDY    59  51  75 E5        30.05F
DUPAGE AIRPORT PTCLDY    61  52  72 W6        30.06F
WHEELING       CLOUDY    62  51  67 CALM      30.07F
NORTHERLY IS     N/A     62  51  67 SE3         N/A
$$

WIZ051-052-058>065-066-070>072-290500-
SOUTHEAST WISCONSIN

CITY           SKY/WX    TMP DP  RH WIND       PRES   REMARKS
MILWAUKEE      MOCLDY    59  49  69 S5        30.06F
KENOSHA*       CLOUDY    60  53  77 CALM      30.06F
RACINE*        CLOUDY    61  51  70 S6        30.07F
$$

INZ001>003-010>013-019-020-290500-
NORTHWEST INDIANA

CITY           SKY/WX    TMP DP  RH WIND       PRES   REMARKS
GARY*          CLOUDY    61  57  88 CALM      30.07F
MICHIGAN CITY* NOT AVBL
RENSSELAER*    NOT AVBL
VALPARAISO     MOCLDY    55  51  86 W3        30.07F
$$

LMZ740>746-290500-
SOUTHERN LAKE MICHIGAN

STATION/POSITION TIME  SKY/WX   TEMP WIND        PRES    VSBY
                                AIR  DIR/SP/G
                 (UTC)          (F)  (DEG/KT/KT) (MB)    (MI)
HARRISON CRIB    0300            62  180/  3/  4   N/A
BURNHAM HARBOR   0400            62  170/  3       N/A
CALUMET HARBOR   0300            62   CALM  /  1 1017.0F
BURNS HARBOR     NOT AVBL
MICHIGAN CITY    0300            64  350/ 12/ 13   N/A
$$

ABBREVIATIONS USED IN REMARKS
   TC - TEMPERATURE IN CELSIUS
  WCI - WIND CHILL INDEX
   HX - HEAT INDEX
  VSB - VISIBILITY
$$


USA.gov is the U.S. government's official web portal to all federal, state and local government web resources and services.